GOES 12 [-]

Last updated on July 6, 2021, 3:23 p.m. UTC

1 26871U 01031A   21186.72984844  .00000082  00000-0  00000-0 0  9993
2 26871   8.9020  50.4017 0006953 321.0985 231.2331  0.99135211 72840
UTC
Height (km)
Latitude
Longitude
Inclination
Orbital Period
UTC large
Height (km)
Speed (km/s)
/
Latitude / Longitude
Inclination (degrees)
Orbital Period (minutes)
Azimuth
Elevation
Range (km)
Doppler Factor
iOS Compass Heading
iOS Angle